SPMEL EPLL-EPMO

Flight info

Callsign SPMEL
Flight time 1h 2m
Altitude 3500
Route EPLL DCT LOZ DCT KRN DCT WAR DCT EPMO
Aircraft DA40/L-A1B2C2D2L1S1S2/S

Departure

Time 2026-04-18 10:09
Airport Łódź Władysław Reymont Airport (EPLL)

Arrival

Time 2026-04-18 11:12
Airport Warsaw Modlin Airport (EPMO)
Time Latitude Longitude Altitude Speed Heading
2026-04-18 09:37 51.72634 19.40418 609 ft 0 kts 198°
2026-04-18 09:41 51.72634 19.40419 609 ft 0 kts 198°
2026-04-18 09:49 51.72634 19.40418 609 ft 0 kts 198°
2026-04-18 10:02 51.72632 19.40417 615 ft 2 kts 199°
2026-04-18 10:02 51.72604 19.40395 617 ft 3 kts 181°
2026-04-18 10:02 51.72578 19.40409 609 ft 6 kts 152°
2026-04-18 10:03 51.72550 19.40458 609 ft 0 kts 127°
2026-04-18 10:03 51.72529 19.40494 609 ft 8 kts 130°
2026-04-18 10:03 51.72502 19.40531 615 ft 0 kts 160°
2026-04-18 10:06 51.72498 19.40533 636 ft 2 kts 159°
2026-04-18 10:07 51.72442 19.40567 608 ft 14 kts 158°
2026-04-18 10:07 51.72354 19.40573 607 ft 9 kts 237°
2026-04-18 10:07 51.72350 19.40557 610 ft 0 kts 245°
2026-04-18 10:08 51.72317 19.40394 602 ft 35 kts 250°
2026-04-18 10:08 51.72203 19.39864 595 ft 69 kts 247°
2026-04-18 10:09 51.72006 19.39043 688 ft 81 kts 258°
2026-04-18 10:09 51.71809 19.38139 713 ft 91 kts 257°
2026-04-18 10:09 51.71585 19.37202 948 ft 84 kts 252°
2026-04-18 10:09 51.71359 19.36389 1250 ft 78 kts 254°
2026-04-18 10:10 51.71147 19.35510 1314 ft 87 kts 257°
2026-04-18 10:10 51.70994 19.34570 1465 ft 87 kts 259°
2026-04-18 10:10 51.70726 19.33703 1738 ft 88 kts 227°
2026-04-18 10:10 51.70182 19.33247 1930 ft 91 kts 191°
2026-04-18 10:11 51.69519 19.33389 2092 ft 102 kts 158°
2026-04-18 10:11 51.68974 19.34055 2309 ft 100 kts 123°
2026-04-18 10:11 51.68662 19.35066 2518 ft 100 kts 96°
2026-04-18 10:11 51.68525 19.36204 2697 ft 103 kts 95°
2026-04-18 10:12 51.68423 19.37312 2947 ft 97 kts 86°
2026-04-18 10:12 51.68440 19.38391 3130 ft 93 kts 75°
2026-04-18 10:12 51.68548 19.39430 3329 ft 97 kts 71°
2026-04-18 10:12 51.68686 19.40491 3418 ft 97 kts 70°
2026-04-18 10:13 51.68848 19.41558 3431 ft 98 kts 71°
2026-04-18 10:13 51.68996 19.42573 3466 ft 94 kts 71°
2026-04-18 10:13 51.69143 19.43605 3463 ft 95 kts 71°
2026-04-18 10:13 51.69274 19.44561 3462 ft 96 kts 71°
2026-04-18 10:14 51.69437 19.45706 3443 ft 112 kts 71°
2026-04-18 10:14 51.69622 19.46987 3436 ft 119 kts 71°
2026-04-18 10:14 51.69810 19.48240 3442 ft 112 kts 71°
2026-04-18 10:14 51.69995 19.49462 3441 ft 114 kts 72°
2026-04-18 10:15 51.70185 19.50723 3417 ft 116 kts 72°
2026-04-18 10:15 51.70370 19.51989 3445 ft 118 kts 71°
2026-04-18 10:15 51.70659 19.53198 3440 ft 116 kts 52°
2026-04-18 10:15 51.71179 19.54158 3473 ft 113 kts 44°
2026-04-18 10:16 51.71719 19.55098 3481 ft 114 kts 43°
2026-04-18 10:16 51.72279 19.56043 3454 ft 117 kts 41°
2026-04-18 10:16 51.72873 19.56948 3469 ft 119 kts 40°
2026-04-18 10:16 51.73432 19.57920 3472 ft 118 kts 45°
2026-04-18 10:17 51.73975 19.58905 3482 ft 117 kts 44°
2026-04-18 10:17 51.74524 19.59903 3400 ft 119 kts 44°
2026-04-18 10:17 51.75055 19.60852 3464 ft 112 kts 45°
2026-04-18 10:17 51.75576 19.61748 3488 ft 110 kts 43°
2026-04-18 10:18 51.76115 19.62674 3473 ft 114 kts 44°
2026-04-18 10:18 51.76673 19.63610 3469 ft 117 kts 43°
2026-04-18 10:18 51.77228 19.64598 3379 ft 123 kts 45°
2026-04-18 10:18 51.77777 19.65627 3402 ft 111 kts 47°
2026-04-18 10:19 51.78202 19.66520 3546 ft 103 kts 61°
2026-04-18 10:19 51.78313 19.67668 3581 ft 105 kts 76°
2026-04-18 10:19 51.78423 19.68873 3521 ft 113 kts 76°
2026-04-18 10:19 51.78581 19.70108 3589 ft 112 kts 74°
2026-04-18 10:20 51.78724 19.71333 3640 ft 111 kts 73°
2026-04-18 10:20 51.78876 19.72605 3622 ft 114 kts 72°
2026-04-18 10:20 51.79105 19.73864 3625 ft 116 kts 69°
2026-04-18 10:20 51.79323 19.75144 3555 ft 122 kts 71°
2026-04-18 10:21 51.79544 19.76496 3480 ft 125 kts 70°
2026-04-18 10:21 51.79773 19.77832 3467 ft 122 kts 70°
2026-04-18 10:21 51.79991 19.79160 3422 ft 121 kts 70°
2026-04-18 10:21 51.80186 19.80440 3410 ft 119 kts 72°
2026-04-18 10:22 51.80378 19.81746 3402 ft 120 kts 70°
2026-04-18 10:22 51.80581 19.83041 3360 ft 121 kts 70°
2026-04-18 10:22 51.80798 19.84314 3358 ft 115 kts 70°
2026-04-18 10:22 51.80980 19.85564 3424 ft 114 kts 70°
2026-04-18 10:23 51.81182 19.86810 3447 ft 111 kts 68°
2026-04-18 10:23 51.81510 19.87946 3446 ft 115 kts 57°
2026-04-18 10:23 51.81813 19.89148 3444 ft 115 kts 64°
2026-04-18 10:23 51.82083 19.90367 3458 ft 118 kts 70°
2026-04-18 10:24 51.82354 19.91614 3399 ft 119 kts 62°
2026-04-18 10:24 51.82660 19.92830 3396 ft 115 kts 63°
2026-04-18 10:24 51.82957 19.94014 3444 ft 117 kts 64°
2026-04-18 10:24 51.83254 19.95269 3421 ft 120 kts 63°
2026-04-18 10:25 51.83559 19.96526 3420 ft 121 kts 68°
2026-04-18 10:25 51.83838 19.97799 3427 ft 120 kts 64°
2026-04-18 10:25 51.84101 19.99087 3431 ft 120 kts 67°
2026-04-18 10:25 51.84424 20.00309 3404 ft 118 kts 63°
2026-04-18 10:26 51.84716 20.01529 3392 ft 119 kts 65°
2026-04-18 10:26 51.85001 20.02770 3366 ft 117 kts 65°
2026-04-18 10:26 51.85258 20.03975 3424 ft 112 kts 64°
2026-04-18 10:26 51.85554 20.05161 3427 ft 116 kts 62°
2026-04-18 10:27 51.85863 20.06373 3421 ft 119 kts 64°
2026-04-18 10:27 51.86126 20.07635 3443 ft 118 kts 69°
2026-04-18 10:27 51.86378 20.08905 3430 ft 117 kts 64°
2026-04-18 10:27 51.86674 20.10103 3441 ft 116 kts 64°
2026-04-18 10:28 51.86962 20.11323 3451 ft 116 kts 64°
2026-04-18 10:28 51.87229 20.12546 3453 ft 115 kts 67°
2026-04-18 10:28 51.87513 20.13761 3435 ft 115 kts 62°
2026-04-18 10:28 51.87815 20.14954 3453 ft 115 kts 64°
2026-04-18 10:29 51.88111 20.16166 3447 ft 115 kts 64°
2026-04-18 10:29 51.88390 20.17387 3446 ft 116 kts 64°
2026-04-18 10:29 51.88674 20.18606 3454 ft 115 kts 65°
2026-04-18 10:29 51.88929 20.19830 3410 ft 116 kts 66°
2026-04-18 10:30 51.89219 20.21013 3451 ft 113 kts 63°
2026-04-18 10:30 51.89511 20.22199 3446 ft 115 kts 64°
2026-04-18 10:30 51.89800 20.23413 3451 ft 115 kts 64°
2026-04-18 10:30 51.90082 20.24618 3455 ft 114 kts 64°
2026-04-18 10:31 51.90363 20.25829 3452 ft 115 kts 64°
2026-04-18 10:31 51.90642 20.27041 3453 ft 114 kts 63°
2026-04-18 10:31 51.90920 20.28242 3451 ft 114 kts 65°
2026-04-18 10:31 51.91191 20.29423 3449 ft 113 kts 64°
2026-04-18 10:32 51.91463 20.30605 3451 ft 112 kts 64°
2026-04-18 10:32 51.91734 20.31783 3446 ft 112 kts 64°
2026-04-18 10:32 51.92008 20.32973 3452 ft 114 kts 64°
2026-04-18 10:32 51.92286 20.34187 3448 ft 115 kts 65°
2026-04-18 10:33 51.92563 20.35400 3437 ft 116 kts 65°
2026-04-18 10:33 51.92866 20.36602 3437 ft 113 kts 48°
2026-04-18 10:33 51.93475 20.36419 3439 ft 113 kts 287°
2026-04-18 10:33 51.92951 20.35761 3446 ft 125 kts 152°
2026-04-18 10:34 51.92998 20.36728 3441 ft 106 kts
2026-04-18 10:34 51.93116 20.35830 3452 ft 125 kts 214°
2026-04-18 10:34 51.92522 20.35034 3479 ft 111 kts 288°
2026-04-18 10:34 51.92961 20.35257 3460 ft 121 kts 103°
2026-04-18 10:35 51.92353 20.35194 3497 ft 112 kts 270°
2026-04-18 10:35 51.92826 20.35015 3566 ft 107 kts 63°
2026-04-18 10:35 51.93023 20.36198 3488 ft 119 kts 79°
2026-04-18 10:35 51.93022 20.37516 3426 ft 114 kts 75°
2026-04-18 10:36 51.93334 20.38665 3257 ft 111 kts 59°
2026-04-18 10:36 51.93559 20.39782 3278 ft 98 kts 68°
2026-04-18 10:36 51.93719 20.40722 3726 ft 69 kts 68°
2026-04-18 10:36 51.93802 20.41398 3981 ft 59 kts 75°
2026-04-18 10:37 51.93917 20.42249 3295 ft 114 kts 87°
2026-04-18 10:37 51.93992 20.43261 3346 ft 82 kts 65°
2026-04-18 10:37 51.94258 20.44042 3412 ft 78 kts 46°
2026-04-18 10:37 51.94549 20.44636 3529 ft 46 kts 46°
2026-04-18 10:38 51.94783 20.45227 3292 ft 79 kts 49°
2026-04-18 10:38 51.95075 20.45974 3278 ft 75 kts 51°
2026-04-18 10:38 51.95333 20.46631 3240 ft 63 kts 49°
2026-04-18 10:38 51.95567 20.47245 3267 ft 63 kts 49°
2026-04-18 10:39 51.95781 20.47858 3296 ft 63 kts 53°
2026-04-18 10:39 51.95969 20.48487 3331 ft 64 kts 56°
2026-04-18 10:39 51.96088 20.49282 3401 ft 82 kts 76°
2026-04-18 10:39 51.96202 20.50226 3553 ft 84 kts 56°
2026-04-18 10:40 51.96422 20.51171 3606 ft 93 kts 66°
2026-04-18 10:40 51.96629 20.52230 3484 ft 105 kts 66°
2026-04-18 10:40 51.96872 20.53340 3447 ft 102 kts 54°
2026-04-18 10:40 51.97329 20.54149 3450 ft 95 kts 23°
2026-04-18 10:41 51.97957 20.54379 3445 ft 91 kts
2026-04-18 10:41 51.98574 20.54522 3433 ft 89 kts
2026-04-18 10:41 51.99245 20.54672 3185 ft 105 kts
2026-04-18 10:41 51.99939 20.54826 2927 ft 97 kts
2026-04-18 10:42 52.00582 20.54983 2668 ft 90 kts
2026-04-18 10:42 52.01186 20.55122 2406 ft 87 kts
2026-04-18 10:42 52.01775 20.55276 2141 ft 84 kts 11°
2026-04-18 10:42 52.02332 20.55528 1893 ft 85 kts 11°
2026-04-18 10:43 52.02929 20.55795 1636 ft 94 kts 11°
2026-04-18 10:43 52.03576 20.56081 1479 ft 96 kts 11°
2026-04-18 10:43 52.04205 20.56355 1477 ft 95 kts 13°
2026-04-18 10:43 52.04841 20.56627 1477 ft 94 kts 13°
2026-04-18 10:44 52.05483 20.56905 1481 ft 97 kts 11°
2026-04-18 10:44 52.06132 20.57183 1468 ft 95 kts 12°
2026-04-18 10:44 52.06752 20.57450 1474 ft 93 kts 12°
2026-04-18 10:44 52.07387 20.57723 1478 ft 96 kts 10°
2026-04-18 10:45 52.08031 20.58003 1472 ft 95 kts 11°
2026-04-18 10:45 52.08668 20.58275 1469 ft 94 kts 12°
2026-04-18 10:45 52.09299 20.58544 1473 ft 95 kts 12°
2026-04-18 10:45 52.09947 20.58822 1482 ft 100 kts 11°
2026-04-18 10:46 52.10645 20.59122 1480 ft 107 kts
2026-04-18 10:46 52.11374 20.59436 1480 ft 112 kts 11°
2026-04-18 10:46 52.12141 20.59768 1474 ft 114 kts 12°
2026-04-18 10:46 52.12906 20.60102 1472 ft 113 kts 11°
2026-04-18 10:47 52.13672 20.60431 1471 ft 113 kts 11°
2026-04-18 10:47 52.14423 20.60754 1477 ft 111 kts 12°
2026-04-18 10:47 52.15186 20.61082 1482 ft 115 kts 11°
2026-04-18 10:47 52.15950 20.61414 1473 ft 114 kts 12°
2026-04-18 10:48 52.16714 20.61743 1479 ft 113 kts 11°
2026-04-18 10:48 52.17479 20.62073 1479 ft 113 kts 11°
2026-04-18 10:48 52.18255 20.62408 1473 ft 118 kts 13°
2026-04-18 10:48 52.19040 20.62750 1465 ft 117 kts 12°
2026-04-18 10:49 52.19826 20.63087 1466 ft 118 kts 13°
2026-04-18 10:49 52.20643 20.63418 1318 ft 126 kts 11°
2026-04-18 10:49 52.21491 20.63641 1288 ft 118 kts
2026-04-18 10:49 52.22195 20.63791 1333 ft 106 kts
2026-04-18 10:50 52.22907 20.63970 1289 ft 102 kts
2026-04-18 10:50 52.23570 20.64307 1249 ft 98 kts 18°
2026-04-18 10:50 52.24200 20.64687 1227 ft 94 kts 18°
2026-04-18 10:50 52.24779 20.65070 1256 ft 88 kts 16°
2026-04-18 10:51 52.25362 20.65473 1229 ft 89 kts 22°
2026-04-18 10:51 52.25874 20.65993 1257 ft 91 kts 43°
2026-04-18 10:51 52.26105 20.66983 1265 ft 97 kts 70°
2026-04-18 10:51 52.26215 20.68080 1250 ft 102 kts 86°
2026-04-18 10:52 52.26195 20.69245 1262 ft 104 kts 89°
2026-04-18 10:52 52.26213 20.70451 1238 ft 109 kts 85°
2026-04-18 10:52 52.26224 20.71681 1227 ft 109 kts 85°
2026-04-18 10:52 52.26231 20.72905 1228 ft 107 kts 86°
2026-04-18 10:53 52.26227 20.74125 1221 ft 105 kts 86°
2026-04-18 10:53 52.26246 20.75321 1215 ft 106 kts 82°
2026-04-18 10:53 52.26253 20.76548 1208 ft 105 kts 85°
2026-04-18 10:53 52.26287 20.77729 1195 ft 103 kts 84°
2026-04-18 10:54 52.26369 20.78854 1220 ft 98 kts 73°
2026-04-18 10:54 52.26513 20.79909 1254 ft 96 kts 73°
2026-04-18 10:54 52.26626 20.81003 1246 ft 99 kts 72°
2026-04-18 10:54 52.26700 20.82137 1225 ft 100 kts 82°
2026-04-18 10:55 52.26763 20.83274 1200 ft 99 kts 81°
2026-04-18 10:55 52.26818 20.84375 1214 ft 97 kts 78°
2026-04-18 10:55 52.26925 20.85450 1238 ft 97 kts 74°
2026-04-18 10:55 52.26982 20.86570 1203 ft 101 kts 81°
2026-04-18 10:56 52.27048 20.87698 1218 ft 98 kts 81°
2026-04-18 10:56 52.27100 20.88801 1177 ft 101 kts 80°
2026-04-18 10:56 52.27146 20.89896 1226 ft 97 kts 80°
2026-04-18 10:56 52.27082 20.90972 1269 ft 99 kts 109°
2026-04-18 10:57 52.26788 20.91991 1280 ft 100 kts 121°
2026-04-18 10:57 52.26436 20.93039 1214 ft 110 kts 107°
2026-04-18 10:57 52.26184 20.94259 1139 ft 112 kts 104°
2026-04-18 10:57 52.26264 20.95398 1169 ft 98 kts 46°
2026-04-18 10:58 52.26749 20.96094 1187 ft 91 kts 35°
2026-04-18 10:58 52.27225 20.96768 1198 ft 90 kts 38°
2026-04-18 10:58 52.27669 20.97458 1221 ft 86 kts 39°
2026-04-18 10:58 52.28119 20.98157 1200 ft 92 kts 38°
2026-04-18 10:59 52.28580 20.98874 1242 ft 90 kts 35°
2026-04-18 10:59 52.29099 20.98704 1256 ft 89 kts 304°
2026-04-18 10:59 52.29411 20.97806 1224 ft 94 kts 302°
2026-04-18 10:59 52.29744 20.96911 1243 ft 90 kts 306°
2026-04-18 11:00 52.30081 20.96056 1215 ft 90 kts 306°
2026-04-18 11:00 52.30455 20.95260 1224 ft 87 kts 315°
2026-04-18 11:00 52.30894 20.94565 1199 ft 91 kts 318°
2026-04-18 11:00 52.31381 20.93891 1184 ft 91 kts 325°
2026-04-18 11:01 52.31924 20.93400 1175 ft 90 kts 336°
2026-04-18 11:01 52.32502 20.93011 1208 ft 89 kts 339°
2026-04-18 11:01 52.33077 20.92670 1243 ft 88 kts 340°
2026-04-18 11:02 52.34279 20.92053 1231 ft 92 kts 339°
2026-04-18 11:02 52.34863 20.91633 1307 ft 91 kts 333°
2026-04-18 11:02 52.35451 20.91159 1318 ft 98 kts 333°
2026-04-18 11:02 52.36087 20.90645 1298 ft 103 kts 332°
2026-04-18 11:03 52.36731 20.90090 1303 ft 106 kts 333°
2026-04-18 11:03 52.37411 20.89559 1274 ft 108 kts 329°
2026-04-18 11:03 52.37812 20.88567 1281 ft 109 kts 278°
2026-04-18 11:03 52.37730 20.87363 1367 ft 104 kts 264°
2026-04-18 11:04 52.37633 20.86154 1310 ft 110 kts 271°
2026-04-18 11:04 52.37591 20.84894 1272 ft 110 kts 273°
2026-04-18 11:04 52.37611 20.83640 1200 ft 112 kts 280°
2026-04-18 11:04 52.37732 20.82476 1271 ft 104 kts 291°
2026-04-18 11:05 52.38075 20.81468 1300 ft 101 kts 315°
2026-04-18 11:05 52.38622 20.80714 1297 ft 104 kts 316°
2026-04-18 11:05 52.39067 20.79756 1268 ft 106 kts 301°
2026-04-18 11:05 52.39373 20.78649 1252 ft 109 kts 293°
2026-04-18 11:06 52.39677 20.77527 1279 ft 108 kts 298°
2026-04-18 11:06 52.39997 20.76403 1250 ft 108 kts 298°
2026-04-18 11:06 52.40292 20.75259 1249 ft 110 kts 290°
2026-04-18 11:06 52.40482 20.74070 1229 ft 109 kts 289°
2026-04-18 11:07 52.40688 20.72882 1221 ft 108 kts 294°
2026-04-18 11:07 52.41016 20.71782 1202 ft 109 kts 304°
2026-04-18 11:07 52.41361 20.70695 1236 ft 109 kts 290°
2026-04-18 11:07 52.41444 20.69429 1203 ft 113 kts 270°
2026-04-18 11:08 52.41510 20.68220 1307 ft 105 kts 285°
2026-04-18 11:08 52.41678 20.66994 1256 ft 110 kts 286°
2026-04-18 11:08 52.41657 20.65764 1249 ft 112 kts 261°
2026-04-18 11:08 52.41673 20.64649 1369 ft 95 kts 319°
2026-04-18 11:09 52.42296 20.64706 1352 ft 103 kts 46°
2026-04-18 11:09 52.42810 20.65566 1237 ft 111 kts 42°
2026-04-18 11:09 52.43018 20.66643 1345 ft 104 kts 87°
2026-04-18 11:09 52.43090 20.67909 1175 ft 117 kts 80°
2026-04-18 11:10 52.43173 20.69130 1266 ft 96 kts 81°
2026-04-18 11:10 52.43213 20.70165 1259 ft 89 kts 83°
2026-04-18 11:10 52.43482 20.70994 1145 ft 85 kts 27°
2026-04-18 11:10 52.44048 20.70905 1051 ft 85 kts 346°
2026-04-18 11:11 52.44609 20.70659 903 ft 81 kts 339°
2026-04-18 11:11 52.45080 20.70206 779 ft 75 kts 330°
2026-04-18 11:11 52.45328 20.69486 643 ft 80 kts 280°
2026-04-18 11:11 52.45363 20.68572 534 ft 77 kts 271°
2026-04-18 11:12 52.45314 20.67706 450 ft 74 kts 271°
2026-04-18 11:12 52.45270 20.66875 375 ft 71 kts 265°
2026-04-18 11:12 52.45220 20.66234 331 ft 33 kts 266°
2026-04-18 11:12 52.45215 20.66156 331 ft 0 kts 265°
2026-04-18 11:13 52.45191 20.65903 333 ft 48 kts 261°
2026-04-18 11:13 52.45118 20.65140 368 ft 80 kts 258°
2026-04-18 11:13 52.45002 20.64264 587 ft 78 kts 261°
2026-04-18 11:14 52.44884 20.63379 751 ft 86 kts 262°
2026-04-18 11:14 52.44695 20.62385 870 ft 95 kts 236°
2026-04-18 11:14 52.44096 20.62002 1016 ft 101 kts 170°
2026-04-18 11:14 52.43420 20.62255 1197 ft 101 kts 161°
2026-04-18 11:15 52.42892 20.62877 1243 ft 92 kts 108°
2026-04-18 11:15 52.42849 20.63868 1217 ft 88 kts 80°
2026-04-18 11:15 52.42913 20.64855 1188 ft 84 kts 76°
2026-04-18 11:15 52.42999 20.65803 1176 ft 86 kts 76°
2026-04-18 11:16 52.43091 20.66761 1214 ft 84 kts 75°
2026-04-18 11:16 52.43215 20.67723 1247 ft 85 kts 72°
2026-04-18 11:16 52.43329 20.68647 1256 ft 84 kts 75°
2026-04-18 11:16 52.43434 20.69584 1284 ft 84 kts 73°
2026-04-18 11:17 52.43611 20.70427 1197 ft 71 kts 46°
2026-04-18 11:17 52.44063 20.70659 1094 ft 73 kts
2026-04-18 11:17 52.44557 20.70602 958 ft 70 kts 350°
2026-04-18 11:17 52.44997 20.70255 842 ft 73 kts 317°
2026-04-18 11:18 52.45270 20.69541 700 ft 77 kts 295°
2026-04-18 11:18 52.45405 20.68686 580 ft 78 kts 275°
2026-04-18 11:18 52.45360 20.67788 466 ft 79 kts 265°
2026-04-18 11:18 52.45282 20.66924 365 ft 74 kts 268°
2026-04-18 11:19 52.45227 20.66251 331 ft 43 kts 261°
2026-04-18 11:19 52.45181 20.65762 332 ft 59 kts 261°
2026-04-18 11:19 52.45092 20.64955 455 ft 75 kts 263°
2026-04-18 11:19 52.44995 20.64124 682 ft 74 kts 263°
2026-04-18 11:20 52.44887 20.63218 785 ft 87 kts 262°
2026-04-18 11:20 52.44501 20.62507 950 ft 93 kts 194°
2026-04-18 11:20 52.43848 20.62589 1104 ft 94 kts 167°
2026-04-18 11:20 52.43260 20.62957 1258 ft 91 kts 132°
2026-04-18 11:21 52.43018 20.63895 1277 ft 91 kts 88°
2026-04-18 11:21 52.43033 20.64949 1265 ft 93 kts 84°
2026-04-18 11:21 52.43090 20.66024 1258 ft 95 kts 79°
2026-04-18 11:21 52.43194 20.67072 1239 ft 93 kts 75°
2026-04-18 11:22 52.43274 20.68094 1266 ft 88 kts 80°
2026-04-18 11:22 52.43299 20.69086 1277 ft 87 kts 83°
2026-04-18 11:22 52.43335 20.70075 1292 ft 90 kts 80°
2026-04-18 11:22 52.43439 20.71041 1209 ft 78 kts 56°
2026-04-18 11:23 52.43869 20.71355 1069 ft 75 kts 348°
2026-04-18 11:23 52.44373 20.71080 982 ft 77 kts 343°
2026-04-18 11:23 52.44850 20.70807 879 ft 72 kts 340°
2026-04-18 11:23 52.45200 20.70218 806 ft 73 kts 305°
2026-04-18 11:24 52.45395 20.69423 689 ft 77 kts 287°
2026-04-18 11:24 52.45415 20.68547 572 ft 77 kts 268°
2026-04-18 11:24 52.45351 20.67684 467 ft 79 kts 265°
2026-04-18 11:24 52.45269 20.66798 343 ft 73 kts 267°
2026-04-18 11:25 52.45214 20.66159 331 ft 38 kts 261°
2026-04-18 11:25 52.45203 20.66045 332 ft 0 kts 262°
2026-04-18 11:26 52.45198 20.65981 331 ft 24 kts 262°
2026-04-18 11:26 52.45152 20.65480 332 ft 60 kts 259°
2026-04-18 11:26 52.45064 20.64694 417 ft 78 kts 261°
2026-04-18 11:27 52.44931 20.63836 659 ft 73 kts 265°
2026-04-18 11:27 52.44864 20.62965 838 ft 78 kts 266°
2026-04-18 11:27 52.44815 20.62004 935 ft 90 kts 270°
2026-04-18 11:27 52.44465 20.61165 1089 ft 101 kts 205°
2026-04-18 11:28 52.43761 20.61240 1207 ft 107 kts 165°
2026-04-18 11:28 52.43111 20.61713 1191 ft 105 kts 134°
2026-04-18 11:28 52.42816 20.62692 1143 ft 96 kts 87°
2026-04-18 11:28 52.42895 20.63700 1197 ft 88 kts 75°
2026-04-18 11:29 52.42993 20.64661 1228 ft 83 kts 75°
2026-04-18 11:29 52.43078 20.65616 1237 ft 86 kts 75°
2026-04-18 11:29 52.43174 20.66559 1267 ft 83 kts 75°
2026-04-18 11:29 52.43286 20.67525 1229 ft 88 kts 72°
2026-04-18 11:30 52.43426 20.68441 1263 ft 84 kts 71°
2026-04-18 11:30 52.43575 20.69352 1270 ft 83 kts 69°
2026-04-18 11:30 52.43831 20.70084 1110 ft 71 kts 22°
2026-04-18 11:30 52.44295 20.69904 954 ft 73 kts 340°
2026-04-18 11:31 52.44740 20.69587 879 ft 74 kts 338°
2026-04-18 11:31 52.45162 20.69149 769 ft 78 kts 298°
2026-04-18 11:31 52.45274 20.68303 612 ft 75 kts 282°
2026-04-18 11:31 52.45290 20.67448 466 ft 76 kts 274°
2026-04-18 11:32 52.45240 20.66620 348 ft 65 kts 271°
2026-04-18 11:32 52.45208 20.66166 331 ft 9 kts 276°
2026-04-18 11:32 52.45208 20.66153 332 ft 0 kts 257°
2026-04-18 11:34 52.45205 20.66130 332 ft 15 kts 261°
2026-04-18 11:34 52.45172 20.65710 334 ft 59 kts 261°
2026-04-18 11:34 52.45092 20.64935 488 ft 68 kts 264°
2026-04-18 11:35 52.44991 20.64129 691 ft 70 kts 261°
2026-04-18 11:35 52.44899 20.63302 813 ft 83 kts 265°
2026-04-18 11:35 52.44734 20.62389 955 ft 92 kts 236°
2026-04-18 11:35 52.44114 20.62153 1063 ft 101 kts 165°
2026-04-18 11:36 52.43421 20.62455 1177 ft 104 kts 161°
2026-04-18 11:36 52.42752 20.62895 1303 ft 103 kts 135°
2026-04-18 11:36 52.42583 20.63913 1236 ft 97 kts 75°
2026-04-18 11:36 52.42635 20.65006 1189 ft 98 kts 79°
2026-04-18 11:37 52.42728 20.66115 1135 ft 100 kts 75°
2026-04-18 11:37 52.42872 20.67186 1171 ft 93 kts 70°
2026-04-18 11:37 52.43049 20.68164 1247 ft 85 kts 66°
2026-04-18 11:37 52.43231 20.69061 1276 ft 82 kts 62°
2026-04-18 11:38 52.43447 20.69975 1254 ft 86 kts 61°
2026-04-18 11:38 52.43706 20.70841 1220 ft 80 kts 53°
2026-04-18 11:38 52.44134 20.71275 1060 ft 75 kts
2026-04-18 11:38 52.44598 20.71048 967 ft 72 kts 331°
2026-04-18 11:39 52.45027 20.70644 934 ft 69 kts 325°
2026-04-18 11:39 52.45443 20.70154 776 ft 74 kts 311°
2026-04-18 11:39 52.45547 20.69359 682 ft 80 kts 253°
2026-04-18 11:39 52.45411 20.68524 566 ft 72 kts 260°
2026-04-18 11:40 52.45322 20.67759 427 ft 65 kts 270°
2026-04-18 11:40 52.45277 20.67032 366 ft 63 kts 269°
2026-04-18 11:40 52.45239 20.66345 329 ft 55 kts 275°
2026-04-18 11:40 52.45194 20.65789 334 ft 54 kts 258°
2026-04-18 11:41 52.45116 20.65116 405 ft 67 kts 259°
2026-04-18 11:41 52.45010 20.64377 554 ft 67 kts 259°
2026-04-18 11:41 52.44884 20.63618 681 ft 68 kts 256°
2026-04-18 11:41 52.44756 20.62867 727 ft 69 kts 255°
2026-04-18 11:42 52.44344 20.62241 749 ft 94 kts 197°
2026-04-18 11:42 52.43681 20.62156 845 ft 99 kts 179°
2026-04-18 11:42 52.42981 20.62289 999 ft 107 kts 171°
2026-04-18 11:42 52.42216 20.62486 1106 ft 111 kts 167°
2026-04-18 11:43 52.41600 20.62952 1355 ft 94 kts 123°
2026-04-18 11:43 52.41527 20.63998 1233 ft 100 kts 63°
2026-04-18 11:43 52.41786 20.65019 1231 ft 98 kts 63°
2026-04-18 11:43 52.42045 20.66041 1159 ft 100 kts 63°
2026-04-18 11:44 52.42317 20.67069 1210 ft 94 kts 63°
2026-04-18 11:44 52.42594 20.68075 1215 ft 96 kts 61°
2026-04-18 11:44 52.42886 20.69034 1258 ft 88 kts 59°
2026-04-18 11:44 52.43191 20.69894 1206 ft 87 kts 53°
2026-04-18 11:45 52.43481 20.70768 1207 ft 87 kts 58°
2026-04-18 11:45 52.43920 20.71388 1057 ft 88 kts 11°
2026-04-18 11:45 52.44473 20.71192 926 ft 77 kts 337°
2026-04-18 11:45 52.44959 20.70806 795 ft 73 kts 329°
2026-04-18 11:46 52.45387 20.70329 694 ft 73 kts 318°
2026-04-18 11:46 52.45519 20.69551 637 ft 75 kts 266°
2026-04-18 11:46 52.45431 20.68726 573 ft 73 kts 264°
2026-04-18 11:46 52.45349 20.67945 506 ft 68 kts 263°
2026-04-18 11:47 52.45296 20.67180 409 ft 68 kts 260°
2026-04-18 11:47 52.45231 20.66431 350 ft 63 kts 264°
2026-04-18 11:47 52.45194 20.65954 332 ft 2 kts 259°
2026-04-18 11:47 52.45194 20.65951 332 ft 0 kts 254°
2026-04-18 11:48 52.45175 20.65757 334 ft 42 kts 261°
2026-04-18 11:48 52.45104 20.65065 385 ft 72 kts 262°
2026-04-18 11:49 52.45015 20.64284 621 ft 70 kts 265°
2026-04-18 11:49 52.44936 20.63458 765 ft 80 kts 265°
2026-04-18 11:49 52.44713 20.62612 886 ft 87 kts 220°
2026-04-18 11:49 52.44090 20.62430 987 ft 100 kts 175°
2026-04-18 11:50 52.43416 20.62505 1183 ft 95 kts 173°
2026-04-18 11:50 52.42879 20.63055 1250 ft 95 kts 111°
2026-04-18 11:50 52.42817 20.64092 1195 ft 90 kts 78°
2026-04-18 11:50 52.42891 20.65090 1217 ft 88 kts 75°
2026-04-18 11:51 52.42966 20.66098 1229 ft 89 kts 77°
2026-04-18 11:51 52.43061 20.67111 1219 ft 91 kts 76°
2026-04-18 11:51 52.43145 20.68119 1256 ft 88 kts 77°
2026-04-18 11:51 52.43235 20.69080 1264 ft 86 kts 75°
2026-04-18 11:52 52.43350 20.70062 1260 ft 90 kts 73°
2026-04-18 11:52 52.43480 20.71049 1279 ft 88 kts 72°
2026-04-18 11:52 52.43689 20.71935 1193 ft 75 kts 38°
2026-04-18 11:52 52.44154 20.72190 1046 ft 74 kts
2026-04-18 11:53 52.44638 20.72232 974 ft 66 kts 353°
2026-04-18 11:53 52.45087 20.72118 907 ft 65 kts 340°
2026-04-18 11:53 52.45394 20.71585 844 ft 69 kts 298°
2026-04-18 11:53 52.45565 20.70839 755 ft 70 kts 288°
2026-04-18 11:54 52.45580 20.70048 691 ft 70 kts 268°
2026-04-18 11:54 52.45490 20.69252 680 ft 72 kts 272°
2026-04-18 11:54 52.45432 20.68431 614 ft 72 kts 270°
2026-04-18 11:54 52.45355 20.67619 473 ft 71 kts 270°
2026-04-18 11:55 52.45278 20.66824 346 ft 68 kts 269°
2026-04-18 11:55 52.45224 20.66231 329 ft 39 kts 259°
2026-04-18 11:55 52.45192 20.65917 333 ft 13 kts 258°
2026-04-18 11:55 52.45187 20.65876 333 ft 0 kts 259°
2026-04-18 11:56 52.45186 20.65876 333 ft 1 kts 260°
2026-04-18 11:56 52.45161 20.65592 334 ft 46 kts 264°
2026-04-18 11:56 52.45098 20.64935 386 ft 63 kts 262°
2026-04-18 11:57 52.44997 20.64175 546 ft 73 kts 267°
2026-04-18 11:57 52.44943 20.63361 740 ft 74 kts 276°
2026-04-18 11:57 52.44942 20.62448 805 ft 84 kts 269°
2026-04-18 11:57 52.44560 20.61655 846 ft 105 kts 209°
2026-04-18 11:58 52.43858 20.61562 1003 ft 104 kts 173°
2026-04-18 11:58 52.43137 20.61665 1158 ft 101 kts 177°
2026-04-18 11:58 52.42440 20.61854 1192 ft 99 kts 155°
2026-04-18 11:58 52.42049 20.62658 1264 ft 94 kts 98°
2026-04-18 11:59 52.42098 20.63686 1229 ft 94 kts 76°
2026-04-18 11:59 52.42223 20.64742 1209 ft 92 kts 72°
2026-04-18 11:59 52.42358 20.65745 1238 ft 89 kts 64°
2026-04-18 11:59 52.42521 20.66732 1261 ft 90 kts 67°
2026-04-18 12:00 52.42692 20.67716 1282 ft 91 kts 66°
2026-04-18 12:00 52.42900 20.68711 1306 ft 95 kts 64°
2026-04-18 12:00 52.43147 20.69604 1299 ft 84 kts 58°
2026-04-18 12:00 52.43407 20.70428 1226 ft 78 kts 55°
2026-04-18 12:01 52.44155 20.71102 886 ft 65 kts 334°
2026-04-18 12:01 52.44569 20.70838 817 ft 62 kts 339°
2026-04-18 12:01 52.45009 20.70628 744 ft 65 kts 341°
2026-04-18 12:02 52.45301 20.70108 653 ft 67 kts 297°
2026-04-18 12:02 52.45436 20.69415 638 ft 64 kts 287°
2026-04-18 12:02 52.45474 20.68697 623 ft 64 kts 265°
2026-04-18 12:02 52.45395 20.67970 572 ft 67 kts 260°
2026-04-18 12:03 52.45304 20.67238 467 ft 66 kts 259°
2026-04-18 12:03 52.45243 20.66516 370 ft 62 kts 262°
2026-04-18 12:03 52.45197 20.65939 333 ft 18 kts 263°
2026-04-18 12:03 52.45190 20.65874 333 ft 11 kts 259°
2026-04-18 12:04 52.45170 20.65681 335 ft 22 kts 263°
2026-04-18 12:04 52.45139 20.65397 332 ft 29 kts 262°
2026-04-18 12:04 52.45110 20.65056 329 ft 32 kts 262°
2026-04-18 12:04 52.45075 20.64689 331 ft 34 kts 261°
2026-04-18 12:05 52.45010 20.64393 333 ft 18 kts 186°
2026-04-18 12:05 52.44902 20.64382 332 ft 14 kts 183°
2026-04-18 12:05 52.44815 20.64377 332 ft 12 kts 179°
2026-04-18 12:05 52.44740 20.64371 330 ft 10 kts 182°
2026-04-18 12:06 52.44714 20.64396 331 ft 3 kts 120°
2026-04-18 12:06 52.44715 20.64457 332 ft 7 kts 81°
2026-04-18 12:06 52.44727 20.64572 332 ft 13 kts 82°
2026-04-18 12:06 52.44744 20.64744 332 ft 17 kts 80°
2026-04-18 12:07 52.44761 20.64942 332 ft 18 kts 90°
2026-04-18 12:07 52.44782 20.65139 331 ft 17 kts 79°
2026-04-18 12:07 52.44797 20.65306 330 ft 12 kts 83°
2026-04-18 12:07 52.44806 20.65418 332 ft 9 kts 80°
2026-04-18 12:08 52.44816 20.65517 332 ft 10 kts 80°
2026-04-18 12:08 52.44828 20.65653 332 ft 13 kts 84°
2026-04-18 12:08 52.44842 20.65819 332 ft 16 kts 81°
2026-04-18 12:08 52.44860 20.66001 332 ft 16 kts 81°
2026-04-18 12:09 52.44878 20.66186 332 ft 15 kts 96°
2026-04-18 12:09 52.44893 20.66363 332 ft 16 kts 82°
2026-04-18 12:09 52.44910 20.66547 332 ft 18 kts 78°
2026-04-18 12:09 52.44903 20.66606 329 ft 0 kts 156°
2026-04-18 12:10 52.44877 20.66616 330 ft 4 kts 97°
2026-04-18 12:10 52.44886 20.66624 332 ft 0 kts 343°